W4SNA-2 Weather Reports


time (UTC)temp
F
wind
direction
speed
knots
gust
knots
rain 1hr
in
rain 24hr
in
rain mn
in
humidity
%
barometer
mb
20260905052928 77 0 0.0 2.6 0.00 0.00 0.00 77 1018.6
20260905052430 77 0 0.0 2.6 0.00 0.00 0.00 77 1018.5
20260905051928 78 0 0.0 3.5 0.00 0.00 0.00 76 1018.5
20260905051428 78 0 0.0 5.2 0.00 0.00 0.00 76 1018.6
20260905050928 78 280 1.7 5.2 0.00 0.00 0.00 76 1018.8
20260905050431 77 0 0.0 0.0 0.00 0.00 0.00 76 1018.8
20260905045928 77 0 0.0 0.0 0.00 0.00 0.00 77 1018.8
20260905045428 77 0 0.0 3.5 0.00 0.00 0.00 79 1018.9
20260905044928 78 0 0.0 3.5 0.00 0.00 0.00 79 1019.0
20260905044428 78 0 0.0 2.6 0.00 0.00 0.00 75 1019.0
20260905043928 78 0 0.0 6.1 0.00 0.00 0.00 73 1019.0
20260905043430 78 280 1.7 7.0 0.00 0.00 0.00 74 1019.0
20260905042928 78 280 4.3 7.0 0.00 0.00 0.00 74 1018.9
20260905042429 78 280 4.3 7.0 0.00 0.00 0.00 74 1018.8
20260905041928 78 280 4.3 7.0 0.00 0.00 0.00 75 1018.8
20260905041429 78 280 3.5 6.1 0.00 0.00 0.00 75 1018.9
20260905040930 79 280 2.6 6.1 0.00 0.00 0.00 75 1019.0
20260905040428 79 280 1.7 5.2 0.00 0.00 0.00 74 1018.9
20260905035928 79 280 0.9 5.2 0.00 0.00 0.00 73 1019.1
20260905035343 80 0 0.0 1.7 0.00 0.00 0.00 72 1019.1
20260905034811 80 0 0.0 1.7 0.00 0.00 0.00 72 1019.1
20260905033651 80 0 0.0 1.7 0.00 0.00 0.00 72 1018.8
20260905033149 80 0 0.0 1.7 0.00 0.00 0.00 72 1018.8
20260905032649 80 0 0.0 0.0 0.00 0.00 0.00 71 1018.8
20260905032149 80 0 0.0 0.0 0.00 0.00 0.00 71 1018.7
20260905031649 79 0 0.0 0.0 0.00 0.00 0.00 72 1018.7
20260905031151 79 0 0.0 0.0 0.00 0.00 0.00 72 1018.5
20260905030649 79 0 0.0 0.0 0.00 0.00 0.00 73 1018.4
20260905030149 79 0 0.0 0.0 0.00 0.00 0.00 75 1018.3
20260905025649 79 0 0.0 0.0 0.00 0.00 0.00 75 1018.3
20260905025148 79 0 0.0 0.0 0.00 0.00 0.00 77 1018.4
20260905024649 79 0 0.0 0.0 0.00 0.00 0.00 77 1018.4
20260905024149 79 0 0.0 0.9 0.00 0.00 0.00 77 1018.4
20260905023649 79 0 0.0 0.9 0.00 0.00 0.00 76 1018.3
20260905023149 79 0 0.0 2.6 0.00 0.00 0.00 75 1018.2
20260905022649 80 0 0.0 2.6 0.00 0.00 0.00 74 1017.8
20260905022149 81 0 0.0 1.7 0.00 0.00 0.00 71 1017.9
20260905021649 81 0 0.0 0.0 0.00 0.00 0.00 67 1017.9
20260905021149 81 0 0.0 0.0 0.00 0.00 0.00 67 1017.9
20260905020650 81 0 0.0 0.0 0.00 0.00 0.00 67 1017.9
20260905020149 81 0 0.0 1.7 0.00 0.00 0.00 67 1018.0
20260905015649 81 0 0.0 1.7 0.00 0.00 0.00 67 1017.9
20260905015042 81 0 0.0 5.2 0.00 0.00 0.00 68 1017.9
20260905014542 81 0 0.0 5.2 0.00 0.00 0.00 68 1017.8
20260905014043 80 0 0.0 5.2 0.00 0.00 0.00 68 1017.7
20260905013542 80 0 0.0 5.2 0.00 0.00 0.00 69 1017.6
20260905013042 80 280 0.9 5.2 0.00 0.00 0.00 69 1017.7
20260905012542 80 0 0.0 5.2 0.00 0.00 0.00 69 1017.7
20260905011742 80 0 0.0 3.5 0.00 0.00 0.00 69 1017.7
20260905011241 80 0 0.0 6.1 0.00 0.00 0.00 69 1017.6
20260905010854 80 280 0.9 6.1 0.00 0.00 0.00 69 1017.7
20260905010741 80 280 0.9 6.1 0.00 0.00 0.00 69 1017.7
20260905010242 80 280 0.9 5.2 0.00 0.00 0.00 70 1017.8
20260905005741 80 280 0.9 3.5 0.00 0.00 0.00 70 1017.7
20260905005316 80 0 0.0 2.6 0.00 0.00 0.00 70 1017.8
20260905005241 80 0 0.0 2.6 0.00 0.00 0.00 70 1017.8
20260905004741 80 0 0.0 0.0 0.00 0.00 0.00 70 1017.8
20260905004242 80 0 0.0 0.9 0.00 0.00 0.00 71 1017.9
20260905003745 80 0 0.0 0.9 0.00 0.00 0.00 72 1017.9
20260905003241 80 0 0.0 0.0 0.00 0.00 0.00 71 1018.0
20260905002741 80 0 0.0 0.0 0.00 0.00 0.00 71 1019.0
20260905002241 80 0 0.0 0.0 0.00 0.00 0.00 71 1019.0
20260905001741 80 0 0.0 0.0 0.00 0.00 0.00 72 1019.0
20260905001241 81 0 0.0 0.0 0.00 0.00 0.00 72 1019.3
20260905000741 81 0 0.0 0.0 0.00 0.00 0.00 71 1019.3
20260905000241 81 0 0.0 0.0 0.00 0.00 0.00 71 1019.4
20260904235741 81 0 0.0 0.9 0.00 0.00 0.00 71 1019.6
20260904235241 81 0 0.0 3.5 0.00 0.00 0.00 72 1019.4
20260904234741 81 0 0.0 3.5 0.00 0.00 0.00 72 1019.3
20260904234241 81 0 0.0 1.7 0.00 0.00 0.00 72 1019.3
20260904233741 81 0 0.0 1.7 0.00 0.00 0.00 71 1019.2
20260904233241 81 0 0.0 1.7 0.00 0.00 0.00 71 1019.2
20260904232745 81 0 0.0 5.2 0.00 0.00 0.00 72 1019.1
20260904232242 81 280 0.9 7.0 0.00 0.00 0.00 72 1019.2
20260904231741 81 280 3.5 8.7 0.00 0.00 0.00 71 1019.0
20260904231243 81 280 4.3 8.7 0.00 0.00 0.00 72 1018.9
20260904230741 80 280 3.5 7.0 0.00 0.00 0.00 74 1019.0
20260904230246 80 280 3.5 7.8 0.00 0.00 0.00 74 1019.2
20260904225743 80 280 2.6 7.8 0.00 0.00 0.00 74 1019.2
20260904225242 80 280 4.3 7.8 0.00 0.00 0.00 73 1019.2
20260904224741 81 280 4.3 7.8 0.00 0.00 0.00 72 1019.1
20260904224242 81 279 4.3 9.6 0.00 0.00 0.00 71 1019.0
20260904223741 82 280 5.2 9.6 0.00 0.00 0.00 71 1019.0
20260904223242 83 280 2.6 6.1 0.00 0.00 0.00 71 1019.1
20260904222741 83 0 0.0 3.5 0.00 0.00 0.00 67 1019.0
20260904222242 83 280 0.9 5.2 0.00 0.00 0.00 67 1018.9
20260904221741 83 0 0.0 5.2 0.00 0.00 0.00 67 1018.9
20260904221245 83 280 0.9 5.2 0.00 0.00 0.00 67 1018.8
20260904220741 83 0 0.0 3.5 0.00 0.00 0.00 68 1018.8
20260904220241 84 0 0.0 3.5 0.00 0.00 0.00 70 1019.0
20260904215741 84 0 0.0 7.0 0.00 0.00 0.00 68 1019.0
20260904215241 84 280 1.7 7.0 0.00 0.00 0.00 68 1019.0
20260904214741 84 280 2.6 7.0 0.00 0.00 0.00 69 1019.0
20260904214241 85 280 0.9 6.1 0.00 0.00 0.00 73 1019.1
20260904213741 85 280 0.9 7.0 0.00 0.00 0.00 72 1019.0
20260904213241 85 280 1.7 7.0 0.00 0.00 0.00 71 1018.9
20260904212741 86 280 1.7 7.0 0.00 0.00 0.00 70 1018.9
20260904212241 87 280 1.7 7.0 0.00 0.00 0.00 68 1018.7
20260904211741 88 280 1.7 7.8 0.00 0.00 0.00 68 1018.6
20260904211243 88 280 2.6 7.8 0.00 0.00 0.00 67 1018.6
20260904210922 90 0 0.0 6.1 0.00 0.00 0.00 63 1018.5
20260904210742 88 280 0.9 7.0 0.00 0.00 0.00 67 1018.6
20260904210241 89 280 1.7 7.0 0.00 0.00 0.00 64 1018.5
20260904205741 90 0 0.0 6.1 0.00 0.00 0.00 63 1018.5
20260904205241 90 0 0.0 5.2 0.00 0.00 0.00 63 1018.6
20260904204741 90 280 1.7 5.2 0.00 0.00 0.00 62 1018.4
20260904204241 90 0 0.0 2.6 0.00 0.00 0.00 63 1018.6
20260904203741 90 0 0.0 2.6 0.00 0.00 0.00 63 1018.5
20260904203241 89 0 0.0 5.2 0.00 0.00 0.00 64 1018.4
20260904202741 90 280 0.9 5.2 0.00 0.00 0.00 63 1018.5
20260904202241 90 0 0.0 5.2 0.00 0.00 0.00 62 1018.7
20260904201741 90 0 0.0 2.6 0.00 0.00 0.00 62 1018.7
20260904201241 90 0 0.0 0.9 0.00 0.00 0.00 60 1018.5
20260904200741 90 0 0.0 0.9 0.00 0.00 0.00 59 1018.5
20260904200241 91 0 0.0 0.9 0.00 0.00 0.00 58 1018.7
20260904195741 92 0 0.0 0.9 0.00 0.00 0.00 58 1018.7
20260904195241 92 0 0.0 1.7 0.00 0.00 0.00 57 1018.6
20260904194741 92 0 0.0 2.6 0.00 0.00 0.00 57 1018.7
20260904194241 92 0 0.0 3.5 0.00 0.00 0.00 57 1018.8
20260904193741 92 280 0.9 5.2 0.00 0.00 0.00 57 1018.9
20260904193241 93 280 0.9 5.2 0.00 0.00 0.00 56 1019.0
20260904192741 93 0 0.0 5.2 0.00 0.00 0.00 56 1019.0
20260904192606 93 280 1.7 5.2 0.00 0.00 0.00 55 1019.1
20260904192241 93 280 1.7 5.2 0.00 0.00 0.00 55 1019.1
20260904191741 93 0 0.0 3.5 0.00 0.00 0.00 56 1019.2
20260904191241 93 0 0.0 6.1 0.00 0.00 0.00 55 1019.3
20260904191155 93 0 0.0 2.6 0.00 0.00 0.00 53 1019.6
20260904190741 93 280 1.7 6.1 0.00 0.00 0.00 54 1019.5
20260904190241 93 0 0.0 2.6 0.00 0.00 0.00 53 1019.6
20260904185741 93 0 0.0 3.5 0.00 0.00 0.00 54 1019.7
20260904185241 93 280 0.9 3.5 0.00 0.00 0.00 54 1019.7
20260904184741 93 0 0.0 2.6 0.00 0.00 0.00 56 1019.8
20260904184241 92 280 0.9 2.6 0.00 0.00 0.00 57 1019.8
20260904183741 92 280 0.9 5.2 0.00 0.00 0.00 58 1019.9
20260904183241 91 280 1.7 7.8 0.00 0.00 0.00 58 1019.9
20260904182741 91 280 1.7 7.8 0.00 0.00 0.00 59 1020.1
20260904182241 91 280 1.7 5.2 0.00 0.00 0.00 58 1020.2
20260904181741 92 280 0.9 5.2 0.00 0.00 0.00 56 1020.2
20260904181241 92 280 0.9 5.2 0.00 0.00 0.00 57 1020.3
20260904180741 91 0 0.0 6.1 0.00 0.00 0.00 57 1020.4
20260904180242 91 280 1.7 6.1 0.00 0.00 0.00 59 1020.5
20260904175741 91 280 0.9 3.5 0.00 0.00 0.00 59 1020.5
20260904175241 91 0 0.0 8.7 0.00 0.00 0.00 58 1020.6
20260904174741 91 280 0.9 8.7 0.00 0.00 0.00 58 1020.7
20260904174241 91 280 0.9 6.1 0.00 0.00 0.00 57 1020.7
20260904173741 91 280 0.9 6.1 0.00 0.00 0.00 58 1020.8
20260904173241 91 280 1.7 5.2 0.00 0.00 0.00 58 1020.8
20260904172741 91 0 0.0 3.5 0.00 0.00 0.00 60 1020.7
20260904172241 90 0 0.0 5.2 0.00 0.00 0.00 60 1020.8
20260904171741 91 280 0.9 5.2 0.00 0.00 0.00 60 1020.8
20260904171328 90 0 0.0 5.2 0.00 0.00 0.00 60 1020.9
20260904171242 90 0 0.0 5.2 0.00 0.00 0.00 60 1020.9
20260904170741 90 280 1.7 5.2 0.00 0.00 0.00 61 1021.0
20260904170422 91 280 0.9 3.5 0.00 0.00 0.00 60 1020.9
20260904170241 91 280 0.9 3.5 0.00 0.00 0.00 60 1020.9
20260904165741 90 0 0.0 3.5 0.00 0.00 0.00 60 1020.9
20260904165241 90 0 0.0 6.1 0.00 0.00 0.00 60 1020.9
20260904164741 90 0 0.0 6.1 0.00 0.00 0.00 61 1021.0
20260904164241 90 0 0.0 2.6 0.00 0.00 0.00 62 1021.0
20260904163742 90 0 0.0 3.5 0.00 0.00 0.00 61 1021.1
20260904163241 90 0 0.0 3.5 0.00 0.00 0.00 61 1021.2
20260904162741 90 0 0.0 5.2 0.00 0.00 0.00 60 1021.3
20260904162242 89 280 0.9 5.2 0.00 0.00 0.00 63 1021.3
20260904161741 89 0 0.0 7.0 0.00 0.00 0.00 63 1021.5
20260904161241 89 280 0.9 7.0 0.00 0.00 0.00 61 1021.5
20260904160741 88 0 0.0 3.5 0.00 0.00 0.00 64 1021.5
20260904160400 88 0 0.0 6.1 0.00 0.00 0.00 65 1021.5
20260904160241 88 0 0.0 6.1 0.00 0.00 0.00 65 1021.5
20260904155741 87 280 0.9 6.1 0.00 0.00 0.00 63 1021.5
20260904155241 87 0 0.0 6.1 0.00 0.00 0.00 65 1021.5
20260904154742 87 0 0.0 3.5 0.00 0.00 0.00 65 1021.5
20260904154241 87 0 0.0 5.2 0.00 0.00 0.00 65 1021.5
20260904153741 87 280 1.7 5.2 0.00 0.00 0.00 65 1021.6
20260904153241 87 0 0.0 6.1 0.00 0.00 0.00 64 1021.6
20260904152741 87 0 0.0 6.1 0.00 0.00 0.00 64 1021.5
20260904152241 87 280 0.9 5.2 0.00 0.00 0.00 64 1021.5
20260904151741 87 0 0.0 1.7 0.00 0.00 0.00 65 1021.5
20260904151241 87 0 0.0 2.6 0.00 0.00 0.00 64 1021.6
20260904150741 86 0 0.0 2.6 0.00 0.00 0.00 65 1021.5
20260904150241 86 0 0.0 2.6 0.00 0.00 0.00 63 1021.6
20260904145727 87 0 0.0 1.7 0.00 0.00 0.00 63 1021.6
20260904144906 86 0 0.0 5.2 0.00 0.00 0.00 66 1021.6
20260904144406 86 0 0.0 5.2 0.00 0.00 0.00 65 1021.6
20260904143906 86 0 0.0 2.6 0.00 0.00 0.00 65 1021.6
20260904143405 85 0 0.0 5.2 0.00 0.00 0.00 65 1021.7
20260904142905 85 0 0.0 5.2 0.00 0.00 0.00 65 1021.6
20260904142405 86 0 0.0 1.7 0.00 0.00 0.00 65 1021.6
20260904141604 85 0 0.0 1.7 0.00 0.00 0.00 65 1021.6
20260904141104 85 0 0.0 0.0 0.00 0.00 0.00 66 1021.6
20260904140604 85 0 0.0 0.0 0.00 0.00 0.00 66 1021.6
20260904140231 84 0 0.0 0.0 0.00 0.00 0.00 67 1021.6
20260904140104 84 0 0.0 0.0 0.00 0.00 0.00 67 1021.6
20260904135604 84 0 0.0 0.0 0.00 0.00 0.00 68 1021.5
20260904135437 84 0 0.0 1.7 0.00 0.00 0.00 67 1021.4
20260904135107 84 0 0.0 0.0 0.00 0.00 0.00 68 1021.5
20260904134608 84 0 0.0 1.7 0.00 0.00 0.00 67 1021.4
20260904134601 84 0 0.0 1.7 0.00 0.00 0.00 68 1021.5
20260904134104 84 0 0.0 1.7 0.00 0.00 0.00 68 1021.5
20260904133604 83 0 0.0 0.9 0.00 0.00 0.00 68 1021.5
20260904133252 83 0 0.0 1.7 0.00 0.00 0.00 69 1021.4
20260904133106 83 0 0.0 1.7 0.00 0.00 0.00 68 1021.5
20260904132606 83 0 0.0 1.7 0.00 0.00 0.00 69 1021.4
20260904132449 82 0 0.0 1.7 0.00 0.00 0.00 69 1021.5
20260904132106 83 0 0.0 0.0 0.00 0.00 0.00 69 1021.5
20260904131604 82 0 0.0 1.7 0.00 0.00 0.00 69 1021.5
20260904131104 82 0 0.0 1.7 0.00 0.00 0.00 69 1021.6
20260904130604 82 0 0.0 0.0 0.00 0.00 0.00 69 1021.6
20260904130105 82 0 0.0 2.6 0.00 0.00 0.00 70 1021.6
20260904125604 82 0 0.0 2.6 0.00 0.00 0.00 70 1021.5
20260904125104 81 0 0.0 2.6 0.00 0.00 0.00 70 1021.6
20260904124604 81 0 0.0 2.6 0.00 0.00 0.00 71 1021.6
20260904124104 81 0 0.0 0.0 0.00 0.00 0.00 71 1021.5
20260904123604 80 0 0.0 0.0 0.00 0.00 0.00 72 1021.5
20260904123106 80 0 0.0 0.0 0.00 0.00 0.00 73 1021.5
20260904122604 80 0 0.0 0.0 0.00 0.00 0.00 74 1021.5
20260904122106 79 0 0.0 0.0 0.00 0.00 0.00 75 1021.4
20260904121459 79 0 0.0 3.5 0.00 0.00 0.00 76 1021.4
20260904120958 79 0 0.0 3.5 0.00 0.00 0.00 76 1021.3
20260904120459 78 0 0.0 5.2 0.00 0.00 0.00 77 1021.3
20260904115959 78 0 0.0 5.2 0.00 0.00 0.00 77 1021.3
20260904115500 78 0 0.0 3.5 0.00 0.00 0.00 77 1021.3
20260904115003 78 0 0.0 1.7 0.00 0.00 0.00 78 1021.3
20260904114457 78 0 0.0 3.5 0.00 0.00 0.00 78 1021.2
20260904113958 78 0 0.0 3.5 0.00 0.00 0.00 78 1021.2
20260904113500 77 0 0.0 3.5 0.00 0.00 0.00 78 1021.1
20260904112957 77 0 0.0 5.2 0.00 0.00 0.00 79 1021.1
20260904112457 77 280 0.9 6.1 0.00 0.00 0.00 79 1021.0
20260904111957 77 280 0.9 7.0 0.00 0.00 0.00 80 1021.0
20260904111458 77 280 0.9 7.0 0.00 0.00 0.00 80 1021.0
20260904111000 78 280 2.6 6.1 0.00 0.00 0.00 79 1021.0
20260904110457 78 280 1.7 5.2 0.00 0.00 0.00 78 1021.0
20260904110204 78 0 0.0 3.5 0.00 0.00 0.00 76 1020.9
20260904105958 78 0 0.0 3.5 0.00 0.00 0.00 76 1020.9
20260904105459 78 0 0.0 1.7 0.00 0.00 0.00 76 1020.8
20260904104958 78 0 0.0 2.6 0.00 0.00 0.00 77 1020.7
20260904104458 78 0 0.0 2.6 0.00 0.00 0.00 78 1020.7
20260904103958 78 0 0.0 1.7 0.00 0.00 0.00 79 1020.6
20260904103458 78 0 0.0 6.1 0.00 0.00 0.00 80 1020.6
20260904102958 78 0 0.0 6.1 0.00 0.00 0.00 80 1020.6
20260904102458 78 0 0.0 3.5 0.00 0.00 0.00 81 1020.6
20260904101958 78 0 0.0 3.5 0.00 0.00 0.00 81 1020.5
20260904101107 77 0 0.0 5.2 0.00 0.00 0.00 82 1020.4
20260904100611 77 0 0.0 3.5 0.00 0.00 0.00 82 1020.5
20260904100046 77 0 0.0 5.2 0.00 0.00 0.00 82 1020.5
20260904095509 78 0 0.0 2.6 0.00 0.00 0.00 82 1020.6
20260904094941 77 0 0.0 1.7 0.00 0.00 0.00 80 1020.6
20260904094346 77 0 0.0 2.6 0.00 0.00 0.00 82 1020.6
20260904093445 78 0 0.0 7.0 0.00 0.00 0.00 82 1020.6
20260904092945 78 0 0.0 6.1 0.00 0.00 0.00 81 1020.5
20260904092445 78 0 0.0 3.5 0.00 0.00 0.00 80 1020.4
20260904091945 77 0 0.0 3.5 0.00 0.00 0.00 81 1020.3
20260904091445 77 0 0.0 5.2 0.00 0.00 0.00 81 1020.2
20260904090949 78 0 0.0 5.2 0.00 0.00 0.00 82 1020.2
20260904090445 78 0 0.0 6.1 0.00 0.00 0.00 81 1020.2
20260904085945 78 0 0.0 6.1 0.00 0.00 0.00 80 1020.1
20260904085445 79 0 0.0 2.6 0.00 0.00 0.00 77 1020.0
20260904084945 79 0 0.0 2.6 0.00 0.00 0.00 77 1020.0
20260904084446 78 0 0.0 5.2 0.00 0.00 0.00 78 1020.1
20260904083947 78 0 0.0 5.2 0.00 0.00 0.00 79 1019.9
20260904083445 78 0 0.0 3.5 0.00 0.00 0.00 80 1019.9
20260904082945 78 0 0.0 3.5 0.00 0.00 0.00 81 1019.8
20260904082445 78 0 0.0 3.5 0.00 0.00 0.00 81 1019.7
20260904081945 78 0 0.0 3.5 0.00 0.00 0.00 80 1019.8
20260904081445 78 0 0.0 1.7 0.00 0.00 0.00 80 1019.8
20260904080946 78 0 0.0 1.7 0.00 0.00 0.00 79 1019.8
20260904080445 78 0 0.0 2.6 0.00 0.00 0.00 79 1019.8
20260904075945 78 0 0.0 2.6 0.00 0.00 0.00 79 1019.9
20260904075445 78 0 0.0 3.5 0.00 0.00 0.00 79 1019.8
20260904074945 78 0 0.0 3.5 0.00 0.00 0.00 79 1019.8
20260904074445 79 0 0.0 5.2 0.00 0.00 0.00 78 1019.8
20260904073947 79 0 0.0 7.0 0.00 0.00 0.00 78 1019.9
20260904073445 79 280 2.6 7.0 0.00 0.00 0.00 78 1019.9
20260904072945 79 280 0.9 5.2 0.00 0.00 0.00 77 1019.9
20260904072406 79 280 0.9 5.2 0.00 0.00 0.00 77 1020.0
20260904071904 79 0 0.0 3.5 0.00 0.00 0.00 77 1020.1
20260904071137 80 280 0.9 7.8 0.00 0.00 0.00 77 1020.1
20260904070635 80 280 0.9 7.8 0.00 0.00 0.00 75 1020.1
20260904070304 81 280 1.7 7.8 0.00 0.00 0.00 74 1020.1
20260904070136 81 280 1.7 7.8 0.00 0.00 0.00 74 1020.1
20260904065637 81 0 0.0 5.2 0.00 0.00 0.00 73 1020.2
20260904065135 81 0 0.0 5.2 0.00 0.00 0.00 73 1020.3
20260904064635 81 0 0.0 3.5 0.00 0.00 0.00 73 1020.4
20260904064135 81 0 0.0 2.6 0.00 0.00 0.00 73 1020.5
20260904063635 81 0 0.0 1.7 0.00 0.00 0.00 74 1020.5
20260904063135 81 0 0.0 3.5 0.00 0.00 0.00 74 1020.6
20260904062635 81 0 0.0 3.5 0.00 0.00 0.00 74 1020.7
20260904062136 81 0 0.0 3.5 0.00 0.00 0.00 74 1020.8
20260904061635 81 0 0.0 3.5 0.00 0.00 0.00 74 1020.9
20260904061136 81 0 0.0 5.2 0.00 0.00 0.00 73 1021.0
20260904060635 81 0 0.0 5.2 0.00 0.00 0.00 73 1021.0
20260904060136 81 0 0.0 5.2 0.00 0.00 0.00 73 1021.2
20260904055635 81 0 0.0 5.2 0.00 0.00 0.00 73 1021.2
20260904055135 81 0 0.0 6.1 0.00 0.00 0.00 73 1021.3
20260904054635 81 0 0.0 6.1 0.00 0.00 0.00 73 1021.3
20260904054135 81 280 0.9 6.1 0.00 0.00 0.00 73 1021.4
20260904053635 81 0 0.0 5.2 0.00 0.00 0.00 73 1021.5
20260904053135 81 0 0.0 7.8 0.00 0.00 0.00 73 1021.5